Satellite: FAST1-2
Catalog number: 37227
Epoch time:      11061.48743218
Element set:    0092
Inclination:      071.9726 deg
RA of node:       274.5102 deg
Eccentricity:    0.0015984
Arg of perigee:   122.6347 deg
Mean anomaly:     237.6379 deg
Mean motion:   14.76396633 rev/day
Decay rate:       1.14e-06 rev/day^2
Epoch rev:           01511
Checksum:              295

/EX
SB KEPS @ AMSAT  $ORB11062.W
Orbital Elements  11062.WEATHER

HR AMSAT ORBITAL ELEMENTS FOR WEATHER SATELLITES
FROM WA5QGD FORT WORTH,TX March 3, 2011
Send Subscribe/unsubscribe to KEPS at http://www.amsat.org/mailman/listinfo/kep
BID: ORB11062.W
TO ALL RADIO AMATEURS BT

Satellite: NOAA-10
Catalog number: 16969
Epoch time:      11062.15675212
Element set:     414
Inclination:      098.6308 deg
RA of node:       093.3319 deg
Eccentricity:    0.0012261
Arg of perigee:   171.4831 deg
Mean anomaly:     188.6554 deg
Mean motion:   14.27445474 rev/day
Decay rate:       -1.4e-07 rev/day^2
Epoch rev:           27252
Checksum:              293

Satellite: NOAA-11
Catalog number: 19531
Epoch time:      11062.26886831
Element set:     421
Inclination:      098.7531 deg
RA of node:       151.7343 deg
Eccentricity:    0.0011779
Arg of perigee:   127.6772 deg
Mean anomaly:     232.5434 deg
Mean motion:   14.14904417 rev/day
Decay rate:      -2.10e-06 rev/day^2
Epoch rev:           15777
Checksum:              293

Satellite: NOAA-12
Catalog number: 21263
Epoch time:      11062.32460272
Element set:     916
Inclination:      098.7570 deg
RA of node:       080.3291 deg
Eccentricity:    0.0013051
Arg of perigee:   131.5117 deg
Mean anomaly:     228.7186 deg
Mean motion:   14.25686577 rev/day
Decay rate:        4.5e-07 rev/day^2
Epoch rev:            2932
Checksum:              278

Satellite: MET-3/5
Catalog number: 21655
Epoch time:      11061.92984833
Element set:    0053
Inclination:      082.5574 deg
RA of node:       125.8561 deg
Eccentricity:    0.0014689
Arg of perigee:   065.5994 deg
Mean anomaly:     294.6673 deg
Mean motion:   13.17024291 rev/day
Decay rate:        5.1e-07 rev/day^2
Epoch rev:           93973
Checksum:              330

Satellite: MET-2/21
Catalog number: 22782
Epoch time:      11061.45022013
Element set:    0033
Inclination:      082.5450 deg
RA of node:       047.5568 deg
Eccentricity:    0.0023629
Arg of perigee:   041.2787 deg
Mean anomaly:     319.0149 deg
Mean motion:   13.83652970 rev/day
Decay rate:        4.1e-07 rev/day^2
Epoch rev:           88379
Checksum:              290

Satellite: OKEAN-4
Catalog number: 23317
Epoch time:      11062.70660606
Element set:     489
Inclination:      082.5398 deg
RA of node:       111.6314 deg
Eccentricity:    0.0023832
Arg of perigee:   105.5142 deg
Mean anomaly:     254.8735 deg
Mean motion:   14.82950749 rev/day
Decay rate:       4.82e-06 rev/day^2
Epoch rev:           88491
Checksum:              307

Satellite: NOAA-14
Catalog number: 23455
Epoch time:      11062.44670940
Element set:     399
Inclination:      098.8555 deg
RA of node:       146.1201 deg
Eccentricity:    0.0008776
Arg of perigee:   216.5462 deg
Mean anomaly:     143.5104 deg
Mean motion:   14.13807511 rev/day
Decay rate:        4.0e-08 rev/day^2
Epoch rev:           83413
Checksum:              282

Satellite: NOAA-15
Catalog number: 25338
Epoch time:      11062.48412842
Element set:     729
Inclination:      098.6466 deg
RA of node:       050.1220 deg
Eccentricity:    0.0011368
Arg of perigee:   043.8278 deg
Mean anomaly:     316.3819 deg
Mean motion:   14.24887568 rev/day
Decay rate:       1.83e-06 rev/day^2
Epoch rev:           66567
Checksum:              324

Satellite: RESURS
Catalog number: 25394
Epoch time:      11061.60297698
Element set:     736
Inclination:      098.2997 deg
RA of node:       070.4974 deg
Eccentricity:    0.0001301
Arg of perigee:   145.2052 deg
Mean anomaly:     214.9210 deg
Mean motion:   14.24224173 rev/day
Decay rate:       -1.1e-07 rev/day^2
Epoch rev:           65713
Checksum:              278

Satellite: FENGYUN1
Catalog number: 25730
Epoch time:      11061.48005533
Element set:     270
Inclination:      098.8089 deg
RA of node:       025.0602 deg
Eccentricity:    0.0022094
Arg of perigee:   252.3434 deg
Mean anomaly:     107.5316 deg
Mean motion:   14.08509663 rev/day
Decay rate:       3.37e-06 rev/day^2
Epoch rev:           60804
Checksum:              266

Satellite: OKEAN-0
Catalog number: 25860
Epoch time:      11061.90636093
Element set:    0245
Inclination:      097.8705 deg
RA of node:       031.3591 deg
Eccentricity:    0.0001288
Arg of perigee:   042.7097 deg
Mean anomaly:     317.4211 deg
Mean motion:   14.73716463 rev/day
Decay rate:       1.28e-06 rev/day^2
Epoch rev:           62500
Checksum:              278

Satellite: NOAA-16
Catalog number: 26536
Epoch time:      11062.46944085
Element set:     210
Inclination:      099.1522 deg
RA of node:       090.8134 deg
Eccentricity:    0.0010016
Arg of perigee:   333.2884 deg
Mean anomaly:     026.7766 deg
Mean motion:   14.12600971 rev/day
Decay rate:       2.00e-06 rev/day^2
Epoch rev:           53843
Checksum:              274

